Volver al catálogo

STARLINK-37020

ActivoComunicacionesSSO
NORAD 68144·PAYLOAD·🇺🇸 United States

Lanzado Mar 13, 2026 desde Vandenberg Space Force Base

Loading…

Próximos Pases (próximas 24 horas)

TLE

ActualizadoSource: CelesTrak SupGP

Época: Sep 14, 2026, 21:33 UTC

1 68144C 26049C   26257.89840278  .00036088  00000+0  11205-2 0  2574
2 68144  97.2837 277.9674 0001438  91.5285 306.2018 15.33413320    15

Sigue STARLINK-37020 en tiempo real con AllMySat

Download on the App Store